User: anonymous   Login
Location: Seasalter
(51.3333°N, 1.0167°E)
Time: 20:56:12
(UTC+00:00)
Language:

Cosmos 1898 Rocket - Orbit

View from above orbital plane
View from above orbital plane
View from above satellite
View from above satellite

Ground track
Ground track

The orbit data is extracted from the following two-line orbital elements,

1 18586U 87098B   24062.58005904  .00000289  00000-0  10516-3 0  9990
2 18586  74.0044 101.6735 0022060 297.5037  62.3874 14.37504072899015
Epoch (UTC): 02 March 2024 13:55:17
Eccentricity: 0.0022060
inclination: 74.0044°
perigee height: 751 km
apogee height: 782 km
right ascension of ascending node: 101.6735°
argument of perigee: 297.5037°
revolutions per day: 14.37504072
mean anomaly at epoch: 62.3874°
orbit number at epoch: 89901

The dashed part of the orbit path shows where the satellite is in the earth's shadow,  

DLR